Location: Newark
(12.4436°N, 0.6167°W)
Time: 13:37:46
(UTC+00:00)

Vanguard 2 - Pass Details

Date: 17 December 2019
Orbit: 553 x 2938 km, 32.9° (Epoch: 28 January)

Event Time Altitude Azimuth Distance (km) Brightness Sun altitude
Rises 19:14:23 0° 206° (SSW) 3,171 11.4 -22.1°
Reaches altitude 10° 19:16:48 10° 192° (SSW) 2,459 10.5 -22.7°
Maximum altitude 19:21:44 27° 135° (SE) 1,955 9.3 -23.8°
Enters shadow 19:22:43 26° 122° (ESE) 2,076 9.4 -24.0°
Drops below altitude 10° 19:28:57 10° 81° (E) 3,705 - -25.5°
Sets 19:33:31 0° 71° (ENE) 5,151 - -26.5°
